When you browse on this site, cookies collect data to enhance your experience and personalize the content and advertising you see.
Visit our Privacy Policy to learn more. By continuing to use the site, you agree to this use of cookies and data.
  • In Schweiz
  • Länderverzeichnis
  • Für 7 Tage
  • Wassertemperatur
  • Wetterkarte
  • Widgets
  • user-avatar
    Anmelden

    Stündliche Wetter Salta

    Heute, 20 Oktober, Sonntag

    Zeit Temperatur Niederschläge Wind Luftdruck Luftfeuchtigkeit
    00:00 +14°C° 0 mm 1 m/S 650 mmHg 80%
    01:00 +14°C° 0 mm 1 m/S 650 mmHg 82%
    02:00 +12°C° 0 mm 0 m/S 649 mmHg 85%
    03:00 +12°C° 0 mm 0 m/S 649 mmHg 86%
    04:00 +12°C° 0 mm 0 m/S 649 mmHg 86%
    05:00 +11°C° 0 mm 0 m/S 648 mmHg 87%
    06:00 +14°C° 0 mm 1 m/S 649 mmHg 82%
    07:00 +15°C° 0 mm 1 m/S 650 mmHg 77%
    08:00 +16°C° 0 mm 1 m/S 651 mmHg 69%
    09:00 +19°C° 0 mm 1 m/S 650 mmHg 62%
    10:00 +20°C° 0 mm 2 m/S 650 mmHg 56%
    11:00 +23°C° 0 mm 2 m/S 650 mmHg 49%
    12:00 +24°C° 0 mm 2 m/S 650 mmHg 46%
    13:00 +25°C° 0 mm 3 m/S 650 mmHg 43%
    14:00 +26°C° 0 mm 3 m/S 650 mmHg 40%
    15:00 +24°C° 0 mm 3 m/S 649 mmHg 47%
    16:00 +22°C° 0 mm 3 m/S 649 mmHg 53%
    17:00 +20°C° 0 mm 4 m/S 649 mmHg 60%
    18:00 +19°C° 0 mm 3 m/S 650 mmHg 64%
    19:00 +18°C° 0 mm 2 m/S 650 mmHg 69%
    20:00 +17°C° 0 mm 2 m/S 651 mmHg 74%
    21:00 +17°C° 0 mm 2 m/S 651 mmHg 75%
    22:00 +18°C° 0 mm 1 m/S 652 mmHg 76%
    23:00 +16°C° 0 mm 1 m/S 652 mmHg 77%

    Morgen, 21 Oktober, Montag

    Zeit Temperatur Niederschläge Wind Luftdruck Luftfeuchtigkeit
    00:00 +16°C° 0 mm 1 m/S 652 mmHg 77%
    01:00 +16°C° 0 mm 1 m/S 652 mmHg 77%
    02:00 +16°C° 0 mm 1 m/S 652 mmHg 77%
    03:00 +15°C° 0 mm 1 m/S 652 mmHg 78%
    04:00 +15°C° 0 mm 1 m/S 652 mmHg 79%
    05:00 +14°C° 0 mm 1 m/S 652 mmHg 80%
    06:00 +16°C° 0 mm 1 m/S 653 mmHg 71%
    07:00 +19°C° 0 mm 1 m/S 653 mmHg 62%
    08:00 +21°C° 0 mm 1 m/S 654 mmHg 54%
    09:00 +22°C° 0 mm 1 m/S 654 mmHg 46%
    10:00 +24°C° 0 mm 2 m/S 654 mmHg 38%
    11:00 +25°C° 0 mm 2 m/S 654 mmHg 30%
    12:00 +26°C° 0 mm 3 m/S 654 mmHg 30%
    13:00 +26°C° 0 mm 4 m/S 653 mmHg 29%
    14:00 +27°C° 0 mm 4 m/S 653 mmHg 28%
    15:00 +26°C° 0 mm 4 m/S 652 mmHg 31%
    16:00 +25°C° 0 mm 4 m/S 652 mmHg 34%
    17:00 +23°C° 0 mm 4 m/S 651 mmHg 37%
    18:00 +22°C° 0 mm 3 m/S 651 mmHg 41%
    19:00 +21°C° 0 mm 2 m/S 651 mmHg 45%
    20:00 +20°C° 0 mm 1 m/S 652 mmHg 49%
    21:00 +20°C° 0 mm 1 m/S 652 mmHg 50%
    22:00 +19°C° 0 mm 1 m/S 652 mmHg 51%
    23:00 +17°C° 0 mm 0 m/S 652 mmHg 52%

    übermorgen, 22 Oktober, Dienstag

    Zeit Temperatur Niederschläge Wind Luftdruck Luftfeuchtigkeit
    00:00 +18°C° 0 mm 1 m/S 652 mmHg 54%
    01:00 +16°C° 0 mm 1 m/S 651 mmHg 57%
    02:00 +15°C° 0 mm 1 m/S 651 mmHg 60%
    03:00 +14°C° 0 mm 1 m/S 651 mmHg 62%
    04:00 +14°C° 0 mm 1 m/S 651 mmHg 64%
    05:00 +12°C° 0 mm 0 m/S 651 mmHg 66%
    06:00 +15°C° 0 mm 1 m/S 651 mmHg 60%
    07:00 +16°C° 0 mm 1 m/S 652 mmHg 55%
    08:00 +19°C° 0 mm 1 m/S 652 mmHg 49%
    09:00 +19°C° 0 mm 2 m/S 652 mmHg 45%
    10:00 +21°C° 0 mm 3 m/S 652 mmHg 41%
    11:00 +24°C° 0 mm 3 m/S 652 mmHg 37%
    12:00 +25°C° 0 mm 3 m/S 651 mmHg 35%
    13:00 +25°C° 0 mm 3 m/S 650 mmHg 34%
    14:00 +26°C° 0 mm 3 m/S 650 mmHg 32%
    15:00 +26°C° 0 mm 3 m/S 650 mmHg 33%
    16:00 +26°C° 0 mm 3 m/S 649 mmHg 34%
    17:00 +25°C° 0 mm 3 m/S 649 mmHg 34%
    18:00 +23°C° 0 mm 2 m/S 649 mmHg 41%
    19:00 +20°C° 0 mm 2 m/S 649 mmHg 48%
    20:00 +19°C° 0 mm 1 m/S 649 mmHg 54%
    21:00 +18°C° 0 mm 1 m/S 649 mmHg 57%
    22:00 +18°C° 0 mm 1 m/S 650 mmHg 59%
    23:00 +15°C° 0 mm 0 m/S 650 mmHg 61%

    23 Oktober, Mittwoch

    Zeit Temperatur Niederschläge Wind Luftdruck Luftfeuchtigkeit
    00:00 +15°C° 0 mm 0 m/S 650 mmHg 62%
    01:00 +14°C° 0 mm 0 m/S 650 mmHg 63%
    02:00 +14°C° 0 mm 0 m/S 650 mmHg 64%
    03:00 +14°C° 0 mm 0 m/S 650 mmHg 65%
    04:00 +13°C° 0 mm 0 m/S 650 mmHg 66%
    05:00 +13°C° 0 mm 0 m/S 650 mmHg 67%
    06:00 +16°C° 0 mm 1 m/S 651 mmHg 60%
    07:00 +19°C° 0 mm 1 m/S 652 mmHg 54%
    08:00 +21°C° 0 mm 1 m/S 653 mmHg 47%
    09:00 +21°C° 0 mm 2 m/S 653 mmHg 43%
    10:00 +24°C° 0 mm 2 m/S 653 mmHg 39%
    11:00 +25°C° 0 mm 3 m/S 653 mmHg 35%
    12:00 +26°C° 0 mm 3 m/S 652 mmHg 33%
    13:00 +27°C° 0 mm 3 m/S 652 mmHg 31%
    14:00 +28°C° 0 mm 4 m/S 651 mmHg 29%
    15:00 +27°C° 0 mm 3 m/S 651 mmHg 30%
    16:00 +27°C° 0 mm 3 m/S 650 mmHg 30%
    17:00 +27°C° 0 mm 3 m/S 650 mmHg 30%
    18:00 +24°C° 0 mm 3 m/S 650 mmHg 36%
    19:00 +21°C° 0 mm 2 m/S 650 mmHg 42%
    20:00 +20°C° 0 mm 1 m/S 650 mmHg 49%
    21:00 +19°C° 0 mm 1 m/S 650 mmHg 51%
    22:00 +18°C° 0 mm 1 m/S 650 mmHg 53%
    23:00 +18°C° 0 mm 1 m/S 650 mmHg 55%

    24 Oktober, Donnerstag

    Zeit Temperatur Niederschläge Wind Luftdruck Luftfeuchtigkeit
    00:00 +18°C° 0 mm 1 m/S 650 mmHg 56%
    01:00 +16°C° 0 mm 1 m/S 650 mmHg 57%
    02:00 +16°C° 0 mm 1 m/S 649 mmHg 58%
    03:00 +15°C° 0 mm 1 m/S 649 mmHg 59%
    04:00 +14°C° 0 mm 0 m/S 649 mmHg 59%
    05:00 +14°C° 0 mm 0 m/S 649 mmHg 60%
    06:00 +18°C° 0 mm 1 m/S 650 mmHg 55%
    07:00 +20°C° 0 mm 1 m/S 651 mmHg 49%
    08:00 +21°C° 0 mm 1 m/S 652 mmHg 43%
    09:00 +23°C° 0 mm 2 m/S 652 mmHg 40%
    10:00 +25°C° 0 mm 2 m/S 652 mmHg 36%
    11:00 +27°C° 0 mm 3 m/S 652 mmHg 33%
    12:00 +27°C° 0 mm 3 m/S 651 mmHg 31%
    13:00 +28°C° 0 mm 3 m/S 651 mmHg 29%
    14:00 +29°C° 0 mm 4 m/S 650 mmHg 28%
    15:00 +29°C° 0 mm 4 m/S 650 mmHg 28%
    16:00 +29°C° 0 mm 4 m/S 649 mmHg 28%
    17:00 +28°C° 0 mm 4 m/S 649 mmHg 29%
    18:00 +26°C° 0 mm 3 m/S 649 mmHg 35%
    19:00 +24°C° 0 mm 2 m/S 649 mmHg 41%
    20:00 +21°C° 0 mm 1 m/S 649 mmHg 47%
    21:00 +21°C° 0 mm 1 m/S 650 mmHg 49%
    22:00 +21°C° 0 mm 1 m/S 650 mmHg 50%
    23:00 +20°C° 0 mm 1 m/S 650 mmHg 52%

    25 Oktober, Freitag

    Zeit Temperatur Niederschläge Wind Luftdruck Luftfeuchtigkeit
    00:00 +20°C° 0 mm 1 m/S 650 mmHg 53%
    01:00 +19°C° 0 mm 1 m/S 649 mmHg 54%
    02:00 +19°C° 0 mm 1 m/S 649 mmHg 55%
    03:00 +19°C° 0 mm 1 m/S 649 mmHg 56%
    04:00 +18°C° 0 mm 1 m/S 649 mmHg 57%
    05:00 +18°C° 0 mm 1 m/S 649 mmHg 58%
    06:00 +20°C° 0 mm 1 m/S 649 mmHg 51%
    07:00 +22°C° 0 mm 1 m/S 650 mmHg 45%
    08:00 +25°C° 0 mm 1 m/S 651 mmHg 38%
    09:00 +26°C° 0 mm 2 m/S 651 mmHg 35%
    10:00 +28°C° 0 mm 2 m/S 651 mmHg 31%
    11:00 +30°C° 0 mm 3 m/S 651 mmHg 27%
    12:00 +31°C° 0 mm 3 m/S 650 mmHg 26%
    13:00 +33°C° 0 mm 4 m/S 649 mmHg 25%
    14:00 +34°C° 0 mm 4 m/S 649 mmHg 24%
    15:00 +33°C° 0 mm 4 m/S 648 mmHg 25%
    16:00 +33°C° 0 mm 4 m/S 648 mmHg 27%
    17:00 +32°C° 0 mm 4 m/S 647 mmHg 28%
    18:00 +29°C° 0 mm 3 m/S 647 mmHg 34%
    19:00 +27°C° 0 mm 2 m/S 647 mmHg 40%
    20:00 +25°C° 0 mm 1 m/S 648 mmHg 45%
    21:00 +24°C° 0 mm 1 m/S 648 mmHg 47%
    22:00 +24°C° 0 mm 1 m/S 648 mmHg 48%
    23:00 +24°C° 0 mm 1 m/S 649 mmHg 50%
    Mehr zeigen